Flag for Germany Weather past 2 weeks in Nuremberg, Bavaria, Germany

Now
64 °F

Sunny.


Feels Like: 64 °F
Forecast: 48 / 66 °F
Wind: 8 mph from West

Location: Nuernberg

Current Time: Aug 22, 2014 at 7:52:30 PM

Latest Report: Aug 22, 2014 at 7:20 PM


Visibility: 10 mi

Pressure: 29.95 "Hg

Humidity: 46%

Dew point: 43 °F

Location of NurembergLocation

Historic Weather in Nuremberg — Graph

°F

Nuremberg temperature yesterday

Maximum temperature yesterday: 66 °F (at 2:50 PM)
Minimum temperature yesterday: 50 °F (at 6:50 AM)
Average temperature yesterday: 58 °F

Past Weeks' High & Low Weather Summary

 TemperatureHumidityPressure
High84 °F (Aug 10, 2:20 PM)100% (Aug 8, 2:20 AM)30.12 "Hg (Aug 8, 2:20 AM)
Low46 °F (Aug 19, 6:50 AM)35% (Aug 10, 4:50 PM)29.68 "Hg (Aug 13, 2:50 PM)
Average62 °F73%29.94 "Hg
* Reported Aug 7 6:20 PM — Aug 22 6:50 PM, Nuremberg, Weather by CustomWeather, © 2014

Note: Actual official high and low records may vary slightly from our data, if they occured in-between our weather recording intervals... More about our weather records

Advertising

Nuremberg weather history for previous 24 hours

 ConditionsComfort  
Time TempWeatherWind HumidityBarometerVisibility
6:50 PM
Aug 22
66 °FPassing clouds.8 mph43%29.95 "HgN/A
6:20 PM66 °FPassing clouds.9 mph43%29.95 "HgN/A
5:50 PM66 °FPassing clouds.10 mph40%29.95 "HgN/A
5:20 PM66 °FSunny.8 mph37%29.95 "Hg10 mi
4:50 PM68 °FPassing clouds.9 mph35%29.95 "HgN/A
4:20 PM66 °FPassing clouds.7 mph37%29.98 "HgN/A
3:50 PM66 °FPassing clouds.12 mph40%29.98 "HgN/A
3:20 PM66 °FPassing clouds.8 mph40%29.98 "HgN/A
2:50 PM66 °FPassing clouds.8 mph35%29.98 "HgN/A
2:20 PM66 °FSunny.7 mph40%29.98 "Hg10 mi
1:50 PM64 °FPassing clouds.6 mph43%30.01 "HgN/A
1:20 PM63 °FPassing clouds.7 mph45%30.01 "HgN/A
12:50 PM63 °FPartly sunny.5 mph49%30.01 "HgN/A
12:20 PM63 °FPartly sunny.5 mph49%30.01 "HgN/A
11:50 AM63 °FBroken clouds.3 mph52%30.01 "HgN/A
11:20 AM61 °FSunny.3 mph59%30.04 "Hg10 mi
10:50 AM59 °FSunny.1 mph68%30.04 "Hg10 mi
10:20 AM59 °FSunny.2 mph68%30.04 "Hg10 mi
9:50 AM55 °FSunny.2 mph77%30.01 "Hg10 mi
9:20 AM54 °FSunny.3 mph82%30.01 "Hg10 mi
8:50 AM52 °FSunny.3 mph88%30.01 "Hg10 mi
8:20 AM52 °FSunny.5 mph82%30.01 "Hg10 mi
7:50 AM50 °FPassing clouds.5 mph88%30.01 "HgN/A
7:20 AM50 °FSunny.2 mph88%30.01 "Hg10 mi
6:50 AM48 °FClear.1 mph94%30.01 "Hg10 mi
6:20 AM48 °FClear.2 mph94%30.01 "Hg10 mi
5:50 AM48 °FClear.3 mph94%30.01 "Hg10 mi
5:20 AM46 °FPassing clouds.5 mph93%30.01 "HgN/A
4:20 AM48 °FClear.6 mph94%30.01 "Hg10 mi
3:50 AM48 °FClear.3 mph94%30.01 "Hg10 mi
3:20 AM48 °FClear.2 mph94%30.01 "Hg10 mi
2:50 AM50 °FPassing clouds.3 mph88%30.01 "HgN/A
2:20 AM50 °FClear.3 mph88%30.01 "Hg10 mi
1:50 AM52 °FClear.5 mph82%30.01 "Hg10 mi
1:20 AM50 °FClear.2 mph88%30.04 "Hg10 mi
12:50 AM52 °FClear.1 mph82%30.04 "Hg10 mi
12:20 AM52 °FClear.2 mph82%30.04 "Hg10 mi
11:50 PM
Aug 21
52 °FClear.5 mph82%30.04 "Hg10 mi
11:20 PM52 °FClear.5 mph82%30.04 "Hg10 mi
10:50 PM52 °FClear.1 mph82%30.04 "Hg10 mi
10:20 PM52 °FClear.1 mph82%30.04 "Hg10 mi
9:50 PM54 °FClear.1 mph72%30.04 "Hg10 mi
9:20 PM54 °FSunny.1 mph77%30.01 "Hg10 mi
8:50 PM57 °FSunny.1 mph63%30.01 "Hg10 mi
8:20 PM59 °FSunny.1 mph59%30.01 "Hg10 mi
7:50 PM63 °FSunny.1 mph56%30.01 "Hg10 mi
7:20 PM64 °FSunny.2 mph49%30.01 "Hg10 mi
Weather by CustomWeather, © 2014

See weather overviewHow to use our weather pages